Weather History for Glencoe, MN

Change the Weather History Date:

Tuesday, October 29, 2013

  Actual Average (KHCD) Record (KHCD)
Temperature  
Mean Temperature 36 °F -  
Max Temperature 42 °F 53 °F 73 °F (2004)
Min Temperature 32 °F 31 °F 15 °F (1988)
Degree Days  
Heating Degree Days 28    
Moisture  
Dew Point 28 °F    
Average Humidity 70    
Maximum Humidity 87    
Minimum Humidity 63    
Precipitation  
Precipitation 0.00 in - - ()
Sea Level Pressure  
Sea Level Pressure 30.22 in    
Wind  
Wind Speed 6 mph (ENE)    
Max Wind Speed 12 mph    
Max Gust Speed 16 mph    
Visibility 10 miles    
Events      
Averages and records for this station are not official NWS values.
T = Trace of Precipitation, MM = Missing Value Source: NWS Daily Summary

Daily Weather History Graph

Daily Weather History Graph

Search for Another Location

Airport:

Trip Planner

Search our weather history database for the weather conditions in past years. The results will help you decide how hot, cold, wet, or windy it might be!

Date:

Astronomy

Oct. 29, 2013 Rise Set
Actual Time 7:50 AM CDT 6:08 PM CDT
Civil Twilight 7:20 AM CDT 6:39 PM CDT
Nautical Twilight 6:45 AM CDT 7:13 PM CDT
Astronomical Twilight 6:11 AM CDT 7:47 PM CDT
Moon 2:29 AM CDT (10/29) 3:33 PM CDT (10/29)
Length of Visible Light 11h 18m
Length of Day
10h 18m
Waning Crescent, 25% of the Moon is Illuminated
Oct 29
Waning Crescent
Nov 3
New
Nov 9
First Quarter
Nov 17
Full
Nov 25
Last Quarter

Hourly Weather History & Observations

Time (CDT) Temp. Windchill Dew Point Humidity Pressure Visibility Wind Dir Wind Speed Gust Speed Precip Events Conditions
12:13 AM 32.0 °F 27.5 °F 23.9 °F 72% 30.38 in 10.0 mi NNE 4.6 mph - N/A   Scattered Clouds
12:33 AM 32.0 °F 25.6 °F 24.3 °F 73% 30.37 in 10.0 mi NNE 6.9 mph - N/A   Overcast
12:53 AM 32.0 °F 26.4 °F 24.4 °F 74% 30.36 in 10.0 mi NNE 5.8 mph - N/A   Overcast
1:13 AM 32.2 °F 25.8 °F 24.4 °F 73% 30.36 in 10.0 mi NNE 6.9 mph - N/A   Overcast
1:33 AM 32.2 °F 27.7 °F 24.6 °F 74% 30.37 in 10.0 mi NNE 4.6 mph - N/A   Overcast
1:53 AM 32.4 °F 29.1 °F 24.8 °F 74% 30.37 in 10.0 mi NE 3.5 mph - N/A   Overcast
2:13 AM 32.5 °F 29.3 °F 24.6 °F 73% 30.37 in 10.0 mi NNE 3.5 mph - N/A   Overcast
2:33 AM 32.9 °F 29.8 °F 24.6 °F 72% 30.37 in 10.0 mi NNE 3.5 mph - N/A   Overcast
2:53 AM 32.9 °F - 24.6 °F 72% 30.37 in 10.0 mi Calm Calm - N/A   Overcast
3:13 AM 32.9 °F - 24.6 °F 72% 30.37 in 10.0 mi Calm Calm - N/A   Overcast
3:33 AM 32.9 °F 29.8 °F 24.6 °F 72% 30.37 in 10.0 mi NNE 3.5 mph - N/A   Overcast
3:53 AM 32.9 °F 28.5 °F 24.8 °F 72% 30.37 in 10.0 mi NNE 4.6 mph - N/A   Overcast
4:13 AM 32.9 °F 28.5 °F 24.8 °F 72% 30.36 in 10.0 mi NNE 4.6 mph - N/A   Overcast
4:33 AM 32.9 °F 28.5 °F 24.6 °F 72% 30.36 in 10.0 mi North 4.6 mph - N/A   Overcast
4:53 AM 33.1 °F 27.7 °F 24.1 °F 70% 30.35 in 10.0 mi NE 5.8 mph - N/A   Overcast
5:13 AM 33.1 °F 28.7 °F 23.9 °F 69% 30.34 in 10.0 mi NE 4.6 mph - N/A   Overcast
5:33 AM 33.1 °F 30.0 °F 24.3 °F 70% 30.34 in 10.0 mi NE 3.5 mph - N/A   Mostly Cloudy
5:53 AM 32.9 °F 28.5 °F 24.4 °F 71% 30.33 in 10.0 mi NE 4.6 mph - N/A   Scattered Clouds
6:13 AM 33.3 °F 30.2 °F 24.4 °F 70% 30.32 in 10.0 mi NE 3.5 mph - N/A   Mostly Cloudy
6:32 AM 33.4 °F 30.4 °F 24.6 °F 70% 30.31 in 10.0 mi NE 3.5 mph - N/A   Mostly Cloudy
6:53 AM 33.6 °F 30.6 °F 24.8 °F 70% 30.30 in 10.0 mi NE 3.5 mph - N/A   Overcast
7:13 AM 34.5 °F 30.4 °F 24.8 °F 68% 30.30 in 10.0 mi ENE 4.6 mph - N/A   Overcast
7:33 AM 35.1 °F 29.3 °F 23.9 °F 64% 30.29 in 10.0 mi East 6.9 mph - N/A   Overcast
7:53 AM 35.1 °F 29.3 °F 23.9 °F 64% 30.29 in 10.0 mi ENE 6.9 mph - N/A   Overcast
8:13 AM 35.2 °F 30.3 °F 24.6 °F 65% 30.29 in 10.0 mi ENE 5.8 mph - N/A   Overcast
8:33 AM 35.8 °F 29.4 °F 24.8 °F 64% 30.29 in 10.0 mi East 8.1 mph - N/A   Overcast
8:53 AM 36.0 °F 29.0 °F 25.2 °F 65% 30.28 in 10.0 mi East 9.2 mph - N/A   Overcast
9:13 AM 36.5 °F 30.3 °F 25.7 °F 65% 30.28 in 10.0 mi East 8.1 mph - N/A   Overcast
9:33 AM 36.7 °F 30.5 °F 26.1 °F 65% 30.27 in 10.0 mi East 8.1 mph - N/A   Overcast
9:52 AM 36.7 °F 30.5 °F 26.4 °F 66% 30.28 in 10.0 mi East 8.1 mph - N/A   Overcast
10:13 AM 37.4 °F 31.4 °F 27.1 °F 66% 30.26 in 10.0 mi East 8.1 mph - N/A   Overcast
10:33 AM 37.4 °F 31.4 °F 27.3 °F 67% 30.27 in 10.0 mi ENE 8.1 mph - N/A   Overcast
10:53 AM 37.6 °F 32.3 °F 27.5 °F 67% 30.27 in 10.0 mi ENE 6.9 mph - N/A   Overcast
11:13 AM 37.8 °F 32.5 °F 28.0 °F 68% 30.25 in 10.0 mi ENE 6.9 mph - N/A   Overcast
11:33 AM 37.6 °F 32.3 °F 28.6 °F 70% 30.25 in 10.0 mi ENE 6.9 mph - N/A   Light Drizzle
11:53 AM 37.9 °F 32.1 °F 29.7 °F 72% 30.26 in 10.0 mi ENE 8.1 mph - N/A   Light Drizzle
12:12 PM 38.7 °F 32.9 °F 29.7 °F 70% 30.23 in 10.0 mi ENE 8.1 mph - N/A   Overcast
12:33 PM 38.7 °F 32.9 °F 29.5 °F 70% 30.21 in 10.0 mi ENE 8.1 mph - N/A   Overcast
12:53 PM 39.2 °F 33.0 °F 29.3 °F 68% 30.20 in 10.0 mi ENE 9.2 mph 16.1 mph N/A   Overcast
1:13 PM 39.9 °F 33.4 °F 29.7 °F 67% 30.18 in 10.0 mi ENE 10.4 mph - N/A   Overcast
1:33 PM 40.3 °F 34.4 °F 29.7 °F 66% 30.19 in 10.0 mi ENE 9.2 mph - N/A   Overcast
1:53 PM 41.2 °F 36.0 °F 30.4 °F 65% 30.19 in 10.0 mi ENE 8.1 mph - N/A   Overcast
2:13 PM 41.0 °F 36.4 °F 29.8 °F 64% 30.18 in 10.0 mi East 6.9 mph - N/A   Overcast
2:33 PM 41.0 °F 38.0 °F 29.7 °F 64% 30.18 in 10.0 mi NE 4.6 mph - N/A   Overcast
2:53 PM 41.0 °F 38.0 °F 29.7 °F 64% 30.17 in 10.0 mi NE 4.6 mph - N/A   Overcast
3:13 PM 41.0 °F 35.8 °F 30.0 °F 65% 30.15 in 10.0 mi ENE 8.1 mph - N/A   Overcast
3:33 PM 41.0 °F 36.4 °F 30.0 °F 65% 30.15 in 10.0 mi ENE 6.9 mph - N/A   Light Drizzle
3:53 PM 41.2 °F 34.5 °F 30.2 °F 65% 30.14 in 10.0 mi ENE 11.5 mph - N/A   Overcast
4:13 PM 41.9 °F 36.9 °F 30.2 °F 63% 30.13 in 10.0 mi ENE 8.1 mph - N/A   Overcast
4:33 PM 41.9 °F 36.3 °F 30.9 °F 65% 30.12 in 10.0 mi ENE 9.2 mph - N/A   Overcast
4:53 PM 41.9 °F 35.9 °F 30.0 °F 63% 30.12 in 10.0 mi ENE 10.4 mph - N/A   Overcast
5:13 PM 41.9 °F 37.5 °F 30.2 °F 63% 30.11 in 10.0 mi ENE 6.9 mph - N/A   Overcast
5:33 PM 41.5 °F 37.8 °F 30.2 °F 64% 30.11 in 10.0 mi ENE 5.8 mph - N/A   Overcast
5:52 PM 41.4 °F 36.8 °F 30.2 °F 65% 30.10 in 10.0 mi ENE 6.9 mph - N/A   Overcast
6:13 PM 41.2 °F 35.0 °F 30.2 °F 65% 30.09 in 10.0 mi East 10.4 mph - N/A   Overcast
6:33 PM 41.0 °F 35.8 °F 30.2 °F 65% 30.09 in 10.0 mi East 8.1 mph - N/A   Mostly Cloudy
6:53 PM 40.6 °F 36.7 °F 30.6 °F 67% 30.10 in 10.0 mi ENE 5.8 mph - N/A   Overcast
7:13 PM 40.8 °F 36.2 °F 30.7 °F 67% 30.09 in 10.0 mi ENE 6.9 mph - N/A   Overcast
7:33 PM 41.0 °F 38.0 °F 30.9 °F 67% 30.10 in 10.0 mi NE 4.6 mph - N/A   Overcast
7:53 PM 41.0 °F 39.0 °F 31.1 °F 68% 30.09 in 10.0 mi NE 3.5 mph - N/A   Overcast
8:13 PM 41.0 °F 38.0 °F 31.5 °F 69% 30.09 in 10.0 mi ENE 4.6 mph - N/A   Overcast
8:33 PM 41.0 °F 38.0 °F 32.0 °F 70% 30.09 in 10.0 mi NE 4.6 mph - N/A   Light Drizzle
8:53 PM 40.5 °F - 32.0 °F 72% 30.09 in 10.0 mi Calm Calm - N/A   Overcast
9:13 PM 40.3 °F 38.2 °F 32.7 °F 74% 30.09 in 10.0 mi NNE 3.5 mph - N/A   Drizzle
9:33 PM 39.6 °F - 33.4 °F 79% 30.10 in 10.0 mi Calm Calm - N/A   Overcast
9:52 PM 39.0 °F - 33.8 °F 82% 30.10 in 10.0 mi Calm Calm - N/A   Overcast
10:13 PM 38.8 °F 35.4 °F 34.3 °F 84% 30.09 in 7.0 mi ENE 4.6 mph - N/A   Overcast
10:33 PM 39.2 °F 37.0 °F 34.7 °F 84% 30.09 in 5.0 mi NE 3.5 mph - N/A   Drizzle
10:53 PM 38.8 °F 36.5 °F 34.9 °F 86% 30.09 in 5.0 mi NNE 3.5 mph - N/A   Overcast
11:13 PM 39.0 °F 35.7 °F 35.4 °F 87% 30.08 in 5.0 mi ENE 4.6 mph - N/A   Overcast
11:33 PM 39.2 °F 35.0 °F 35.6 °F 87% 30.07 in 5.0 mi ENE 5.8 mph - N/A   Overcast
11:53 PM 39.2 °F 34.2 °F 35.6 °F 87% 30.07 in 3.0 mi ENE 6.9 mph - N/A   Overcast